Location: Znojmo
(48.8500°N, 16.0500°E)
Time: 19:18:41
(UTC+02:00)

ISS - Pass Details

Date: 30 March 2019
Orbit: 408 x 410 km, 51.6° (Epoch: 20 April)

Event Time Altitude Azimuth Distance (km) Brightness Sun altitude
Rises 20:51:39 0° 289° (WNW) 2,340 1.3 -23.3°
Reaches altitude 10° 20:53:44 10° 291° (WNW) 1,477 0.0 -23.6°
Enters shadow 20:55:57 39° 298° (WNW) 635 -2.4 -23.8°
